Back to catalog

CZ-6A DEB

AlivePO
NORAD 61835·DEBRIS·🇨🇳 China

Launched Aug 6, 2024 from Taiyuan Satellite Launch Center

Loading…

Next Passes (next 24 hours)

TLE

FreshSource: Space-Track

Epoch: Sep 14, 2026, 11:23 UTC

1 61835U 24140ADB 26257.47433357  .00001887  00000-0  73756-3 0  9997
2 61835  88.9933 263.4165 0029177 256.6699 103.1242 14.28991434103698

Track CZ-6A DEB in real time with AllMySat

Download on the App Store